| time (UTC) | temp F | wind direction | speed knots | gust knots | rain 1hr in | rain 24hr in | rain mn in | humidity % | barometer mb |
| 20260901154507 | 72 | 44 | 0.0 | 0.0 | 0.00 | 0.00 | 0.00 | 60 | 1019.5 |
| 20260901153004 | 73 | 44 | 0.0 | 0.0 | 0.00 | 0.00 | 0.00 | 57 | 1019.5 |
| 20260901151558 | 75 | 44 | 0.0 | 0.0 | 0.00 | 0.00 | 0.00 | 53 | 1019.6 |
| 20260901150053 | 76 | 44 | 0.0 | 0.0 | 0.00 | 0.00 | 0.00 | 48 | 1019.6 |
| 20260901144549 | 77 | 44 | 0.0 | 0.0 | 0.00 | 0.00 | 0.00 | 49 | 1019.6 |
| 20260901143046 | 77 | 44 | 0.0 | 0.0 | 0.00 | 0.00 | 0.00 | 51 | 1019.6 |
| 20260901141550 | 77 | 44 | 0.0 | 0.0 | 0.00 | 0.00 | 0.00 | 48 | 1019.7 |
| 20260901140036 | 78 | 44 | 0.0 | 0.9 | 0.00 | 0.00 | 0.00 | 50 | 1019.7 |
| 20260901134531 | 77 | 44 | 0.0 | 0.9 | 0.00 | 0.00 | 0.00 | 48 | 1019.8 |
| 20260901133028 | 77 | 44 | 0.0 | 0.9 | 0.00 | 0.00 | 0.00 | 50 | 1019.9 |
| 20260901131523 | 77 | 44 | 0.0 | 0.0 | 0.00 | 0.00 | 0.00 | 47 | 1020.0 |
| 20260901130019 | 77 | 44 | 0.0 | 0.9 | 0.00 | 0.00 | 0.00 | 49 | 1020.3 |
| 20260901124517 | 77 | 44 | 0.0 | 0.0 | 0.00 | 0.00 | 0.00 | 50 | 1020.4 |
| 20260901123011 | 77 | 44 | 0.0 | 0.0 | 0.00 | 0.00 | 0.00 | 54 | 1020.5 |
| 20260901121506 | 76 | 44 | 0.0 | 0.0 | 0.00 | 0.00 | 0.00 | 49 | 1020.6 |
| 20260901120002 | 76 | 44 | 0.0 | 0.0 | 0.00 | 0.00 | 0.00 | 51 | 1020.6 |
| 20260901114558 | 76 | 44 | 0.0 | 0.9 | 0.00 | 0.00 | 0.00 | 50 | 1020.7 |
| 20260901113054 | 76 | 44 | 0.0 | 0.9 | 0.00 | 0.00 | 0.00 | 55 | 1020.8 |
| 20260901111548 | 77 | 44 | 0.0 | 0.0 | 0.00 | 0.00 | 0.00 | 52 | 1021.0 |
| 20260901110044 | 76 | 44 | 0.0 | 0.9 | 0.00 | 0.00 | 0.00 | 56 | 1021.0 |
| 20260901104542 | 75 | 44 | 0.0 | 0.9 | 0.00 | 0.00 | 0.00 | 55 | 1021.1 |
| 20260901103035 | 74 | 44 | 0.0 | 0.0 | 0.00 | 0.00 | 0.00 | 55 | 1021.1 |
| 20260901101531 | 75 | 44 | 0.0 | 0.9 | 0.00 | 0.00 | 0.00 | 57 | 1021.2 |
| 20260901100028 | 74 | 44 | 0.0 | 0.9 | 0.00 | 0.00 | 0.00 | 56 | 1021.2 |
| 20260901094522 | 75 | 44 | 0.0 | 0.9 | 0.00 | 0.00 | 0.00 | 59 | 1021.3 |
| 20260901093018 | 74 | 44 | 0.0 | 0.9 | 0.00 | 0.00 | 0.00 | 58 | 1021.3 |
| 20260901091517 | 74 | 44 | 0.0 | 0.9 | 0.00 | 0.00 | 0.00 | 53 | 1021.3 |
| 20260901090008 | 74 | 44 | 0.0 | 0.0 | 0.00 | 0.00 | 0.00 | 54 | 1021.4 |
| 20260901084505 | 74 | 44 | 0.0 | 0.0 | 0.00 | 0.00 | 0.00 | 55 | 1021.4 |
| 20260901083101 | 73 | 44 | 0.0 | 0.9 | 0.00 | 0.00 | 0.00 | 58 | 1021.3 |
| 20260901081555 | 73 | 44 | 0.0 | 0.0 | 0.00 | 0.00 | 0.00 | 59 | 1021.3 |
| 20260901080059 | 72 | 44 | 0.0 | 0.0 | 0.00 | 0.00 | 0.00 | 59 | 1021.3 |
| 20260901074550 | 72 | 44 | 0.0 | 0.0 | 0.00 | 0.00 | 0.00 | 58 | 1021.3 |
| 20260901073042 | 70 | 44 | 0.0 | 0.0 | 0.00 | 0.00 | 0.00 | 64 | 1021.4 |
| 20260901071537 | 69 | 44 | 0.0 | 0.0 | 0.00 | 0.00 | 0.00 | 65 | 1021.5 |
| 20260901070035 | 68 | 44 | 0.0 | 0.0 | 0.00 | 0.00 | 0.00 | 69 | 1021.4 |
| 20260901064531 | 65 | 44 | 0.0 | 0.0 | 0.00 | 0.00 | 0.00 | 74 | 1021.5 |
| 20260901063024 | 63 | 44 | 0.0 | 0.0 | 0.00 | 0.00 | 0.00 | 76 | 1021.6 |
| 20260901061520 | 62 | 44 | 0.0 | 0.0 | 0.00 | 0.00 | 0.00 | 76 | 1021.7 |
| 20260901060015 | 58 | 44 | 0.0 | 0.0 | 0.00 | 0.00 | 0.00 | 9 | 1021.7 |
| 20260901054512 | 54 | 44 | 0.0 | 0.0 | 0.00 | 0.00 | 0.00 | 5 | 1021.7 |
| 20260901053008 | 51 | 44 | 0.0 | 0.0 | 0.00 | 0.00 | 0.00 | 13 | 1021.6 |
| 20260901051512 | 50 | 44 | 0.0 | 0.0 | 0.00 | 0.00 | 0.00 | 17 | 1021.5 |
| 20260901050003 | 49 | 44 | 0.0 | 0.0 | 0.00 | 0.00 | 0.00 | 20 | 1021.4 |
| 20260901044500 | 49 | 44 | 0.0 | 0.0 | 0.00 | 0.00 | 0.00 | 22 | 1021.4 |
| 20260901043106 | 50 | 44 | 0.0 | 0.0 | 0.00 | 0.00 | 0.00 | 22 | 1021.4 |
| 20260901041608 | 50 | 44 | 0.0 | 0.0 | 0.00 | 0.00 | 0.00 | 26 | 1021.2 |
| 20260901040057 | 50 | 44 | 0.0 | 0.0 | 0.00 | 0.00 | 0.00 | 31 | 1021.1 |
| 20260901034553 | 50 | 44 | 0.0 | 0.0 | 0.00 | 0.00 | 0.00 | 31 | 1021.0 |
| 20260901033050 | 50 | 44 | 0.0 | 0.0 | 0.00 | 0.00 | 0.00 | 37 | 1021.1 |
| 20260901031556 | 51 | 44 | 0.0 | 0.0 | 0.00 | 0.00 | 0.00 | 41 | 1021.0 |
| 20260901030045 | 51 | 44 | 0.0 | 0.0 | 0.00 | 0.00 | 0.00 | 43 | 1021.1 |
| 20260901024544 | 52 | 44 | 0.0 | 0.0 | 0.00 | 0.00 | 0.00 | 43 | 1021.2 |
| 20260901023042 | 53 | 44 | 0.0 | 0.0 | 0.00 | 0.00 | 0.00 | 45 | 1021.2 |
| 20260901021538 | 53 | 44 | 0.0 | 0.0 | 0.00 | 0.00 | 0.00 | 45 | 1021.1 |
| 20260901020037 | 53 | 44 | 0.0 | 0.0 | 0.00 | 0.00 | 0.00 | 45 | 1020.9 |
| 20260901014543 | 54 | 44 | 0.0 | 0.0 | 0.00 | 0.00 | 0.00 | 43 | 1020.8 |
| 20260901013036 | 54 | 44 | 0.0 | 0.0 | 0.00 | 0.00 | 0.00 | 47 | 1020.8 |
| 20260901011533 | 54 | 44 | 0.0 | 0.0 | 0.00 | 0.00 | 0.00 | 50 | 1020.7 |
| 20260901010031 | 54 | 44 | 0.0 | 0.0 | 0.00 | 0.00 | 0.00 | 49 | 1020.7 |
| 20260901004533 | 54 | 44 | 0.0 | 0.0 | 0.00 | 0.00 | 0.00 | 48 | 1020.6 |
| 20260901003033 | 54 | 44 | 0.0 | 0.0 | 0.00 | 0.00 | 0.00 | 43 | 1020.6 |
| 20260901001536 | 53 | 44 | 0.0 | 0.0 | 0.00 | 0.00 | 0.00 | 43 | 1020.6 |
| 20260901000026 | 53 | 44 | 0.0 | 0.0 | 0.00 | 0.00 | 0.00 | 50 | 1020.7 |
| 20260831234524 | 53 | 44 | 0.0 | 0.0 | 0.00 | 0.00 | 0.00 | 58 | 1020.6 |
| 20260831233020 | 54 | 44 | 0.0 | 0.0 | 0.00 | 0.00 | 0.00 | 64 | 1020.5 |
| 20260831231515 | 55 | 44 | 0.0 | 0.0 | 0.00 | 0.00 | 0.00 | 68 | 1020.5 |
| 20260831230018 | 55 | 44 | 0.0 | 0.0 | 0.00 | 0.00 | 0.00 | 72 | 1020.6 |
| 20260831224510 | 56 | 44 | 0.0 | 0.0 | 0.00 | 0.00 | 0.00 | 75 | 1020.5 |
| 20260831223007 | 57 | 44 | 0.0 | 0.0 | 0.00 | 0.00 | 0.00 | 76 | 1020.6 |
| 20260831221504 | 58 | 44 | 0.0 | 0.9 | 0.00 | 0.00 | 0.00 | 76 | 1020.6 |
| 20260831220002 | 58 | 44 | 0.0 | 0.0 | 0.00 | 0.00 | 0.00 | 74 | 1020.4 |
| 20260831214606 | 58 | 44 | 0.0 | 0.0 | 0.00 | 0.00 | 0.00 | 72 | 1020.3 |
| 20260831213053 | 58 | 44 | 0.0 | 0.0 | 0.00 | 0.00 | 0.00 | 65 | 1020.3 |
| 20260831211551 | 58 | 44 | 0.0 | 0.0 | 0.00 | 0.00 | 0.00 | 60 | 1019.8 |
| 20260831210046 | 58 | 44 | 0.0 | 0.0 | 0.00 | 0.00 | 0.00 | 60 | 1019.5 |
| 20260831203037 | 59 | 44 | 0.0 | 0.0 | 0.00 | 0.00 | 0.00 | 64 | 1019.2 |
| 20260831201538 | 59 | 44 | 0.0 | 0.0 | 0.00 | 0.00 | 0.00 | 60 | 1019.0 |
| 20260831200026 | 59 | 44 | 0.0 | 0.0 | 0.00 | 0.00 | 0.00 | 62 | 1018.7 |
| 20260831194523 | 59 | 44 | 0.0 | 0.0 | 0.00 | 0.00 | 0.00 | 62 | 1018.6 |
| 20260831193020 | 59 | 44 | 0.0 | 0.0 | 0.00 | 0.00 | 0.00 | 66 | 1018.4 |
| 20260831191513 | 59 | 44 | 0.0 | 0.0 | 0.00 | 0.00 | 0.00 | 69 | 1018.3 |
| 20260831190009 | 59 | 44 | 0.0 | 0.0 | 0.00 | 0.00 | 0.00 | 74 | 1018.1 |
| 20260831184505 | 60 | 44 | 0.0 | 0.0 | 0.00 | 0.00 | 0.00 | 77 | 1017.7 |
| 20260831183103 | 61 | 44 | 0.0 | 0.0 | 0.00 | 0.00 | 0.00 | 78 | 1017.4 |
| 20260831181557 | 63 | 44 | 0.0 | 0.0 | 0.00 | 0.00 | 0.00 | 78 | 1017.1 |
| 20260831180053 | 65 | 44 | 0.0 | 0.0 | 0.00 | 0.00 | 0.00 | 75 | 1016.7 |
| 20260831174548 | 67 | 44 | 0.0 | 0.0 | 0.00 | 0.00 | 0.00 | 71 | 1016.6 |
| 20260831173044 | 68 | 44 | 0.0 | 0.0 | 0.00 | 0.00 | 0.00 | 67 | 1016.3 |
| 20260831171539 | 69 | 44 | 0.0 | 0.0 | 0.00 | 0.00 | 0.00 | 65 | 1016.1 |
| 20260831170037 | 70 | 44 | 0.0 | 0.0 | 0.00 | 0.00 | 0.00 | 62 | 1016.1 |
| 20260831164530 | 70 | 44 | 0.0 | 0.0 | 0.00 | 0.00 | 0.00 | 61 | 1016.0 |
| 20260831163026 | 70 | 44 | 0.0 | 1.7 | 0.00 | 0.00 | 0.00 | 61 | 1016.1 |
| 20260831161522 | 70 | 44 | 0.0 | 1.7 | 0.00 | 0.00 | 0.00 | 62 | 1015.9 |
| 20260831160018 | 70 | 44 | 0.0 | 0.0 | 0.00 | 0.00 | 0.00 | 63 | 1015.7 |